Location: Waco, TX
(31.5480°N, 97.1670°W)
Time: 14:37:28
(UTC-06:00)

ISS - Pass Details

Date: 16 February 2018
Orbit: 402 x 407 km, 51.6° (Epoch: 24 February)

Event Time Altitude Azimuth Distance (km) Brightness Sun altitude
Rises 17:27:14 0° 321° (NW) 2,314 0.3 9.2°
Reaches altitude 10° 17:29:23 10° 328° (NNW) 1,453 -0.8 8.8°
Maximum altitude 17:32:30 43° 42° (NE) 573 -3.3 8.2°
Drops below altitude 10° 17:35:37 10° 116° (ESE) 1,448 -1.4 7.5°
Sets 17:37:45 0° 123° (ESE) 2,304 -0.4 7.1°
